TimeCDT,TemperatureF,Dew PointF,Humidity,Sea Level PressureIn,VisibilityMPH,Wind Direction,Wind SpeedMPH,Gust SpeedMPH,PrecipitationIn,Events,Conditions,WindDirDegrees,DateUTC
12:15 AM,26.6,21.2,80,30.12,10.0,Calm,Calm,-,N/A,,Clear,0,2013-05-13 05:15:00
12:35 AM,26.6,21.2,80,30.12,10.0,Calm,Calm,-,N/A,,Clear,0,2013-05-13 05:35:00
12:55 AM,24.8,19.4,80,30.12,10.0,Calm,Calm,-,N/A,,Clear,0,2013-05-13 05:55:00
1:15 AM,23.0,19.4,86,30.12,10.0,Calm,Calm,-,N/A,,Clear,0,2013-05-13 06:15:00
1:35 AM,23.0,21.2,93,30.12,10.0,Calm,Calm,-,N/A,,Clear,0,2013-05-13 06:35:00
1:55 AM,23.0,19.4,86,30.11,10.0,Calm,Calm,-,N/A,,Clear,0,2013-05-13 06:55:00
2:15 AM,23.0,19.4,86,30.11,10.0,Calm,Calm,-,N/A,,Clear,0,2013-05-13 07:15:00
2:35 AM,21.2,19.4,93,30.11,10.0,Calm,Calm,-,N/A,,Clear,0,2013-05-13 07:35:00
2:55 AM,21.2,19.4,93,30.11,10.0,Calm,Calm,-,N/A,,Clear,0,2013-05-13 07:55:00
3:15 AM,21.2,19.4,93,30.11,10.0,Calm,Calm,-,N/A,,Clear,0,2013-05-13 08:15:00
3:35 AM,21.2,19.4,93,30.11,10.0,Calm,Calm,-,N/A,,Clear,0,2013-05-13 08:35:00
3:55 AM,21.2,19.4,93,30.11,10.0,Calm,Calm,-,N/A,,Clear,0,2013-05-13 08:55:00
4:15 AM,21.2,19.4,93,30.10,10.0,Calm,Calm,-,N/A,,Clear,0,2013-05-13 09:15:00
4:35 AM,19.4,17.6,93,30.10,10.0,Calm,Calm,-,N/A,,Clear,0,2013-05-13 09:35:00
4:55 AM,19.4,19.4,100,30.11,10.0,Calm,Calm,-,N/A,,Clear,0,2013-05-13 09:55:00
5:15 AM,21.2,19.4,93,30.11,10.0,Calm,Calm,-,N/A,,Clear,0,2013-05-13 10:15:00
5:35 AM,19.4,17.6,93,30.11,10.0,Calm,Calm,-,N/A,,Clear,0,2013-05-13 10:35:00
5:55 AM,19.4,17.6,93,30.11,10.0,Calm,Calm,-,N/A,,Clear,0,2013-05-13 10:55:00
6:15 AM,21.2,19.4,93,30.12,10.0,Calm,Calm,-,N/A,,Clear,0,2013-05-13 11:15:00
6:35 AM,23.0,21.2,93,30.12,10.0,Calm,Calm,-,N/A,,Clear,0,2013-05-13 11:35:00
6:55 AM,28.4,26.6,93,30.13,10.0,Calm,Calm,-,N/A,,Clear,0,2013-05-13 11:55:00
7:15 AM,30.2,28.4,93,30.14,10.0,Calm,Calm,-,N/A,,Clear,0,2013-05-13 12:15:00
7:35 AM,33.8,26.6,75,30.14,10.0,Calm,Calm,-,N/A,,Clear,0,2013-05-13 12:35:00
7:55 AM,37.4,23.0,56,30.14,10.0,Calm,Calm,-,N/A,,Clear,0,2013-05-13 12:55:00
8:15 AM,39.2,21.2,49,30.14,10.0,Calm,Calm,-,N/A,,Clear,0,2013-05-13 13:15:00
8:35 AM,41.0,19.4,42,30.14,10.0,SSE,3.5,-,N/A,,Clear,160,2013-05-13 13:35:00
8:55 AM,42.8,17.6,36,30.14,10.0,Calm,Calm,-,N/A,,Clear,0,2013-05-13 13:55:00
9:15 AM,42.8,17.6,36,30.14,10.0,ESE,4.6,-,N/A,,Clear,120,2013-05-13 14:15:00
9:35 AM,44.6,19.4,37,30.14,10.0,Calm,Calm,-,N/A,,Clear,0,2013-05-13 14:35:00
9:55 AM,44.6,17.6,34,30.13,10.0,SSW,6.9,-,N/A,,Clear,210,2013-05-13 14:55:00
10:15 AM,44.6,17.6,34,30.12,10.0,SW,5.8,-,N/A,,Clear,230,2013-05-13 15:15:00
10:35 AM,46.4,17.6,32,30.12,10.0,Calm,Calm,-,N/A,,Clear,0,2013-05-13 15:35:00
10:55 AM,46.4,17.6,32,30.11,10.0,SW,5.8,-,N/A,,Clear,230,2013-05-13 15:55:00
11:15 AM,46.4,19.4,34,30.11,10.0,West,8.1,-,N/A,,Clear,260,2013-05-13 16:15:00
11:35 AM,50.0,17.6,28,30.09,10.0,SSW,3.5,-,N/A,,Clear,210,2013-05-13 16:35:00
11:55 AM,51.8,19.4,28,30.08,10.0,WSW,6.9,-,N/A,,Clear,240,2013-05-13 16:55:00
12:15 PM,51.8,19.4,28,30.07,10.0,West,4.6,-,N/A,,Clear,260,2013-05-13 17:15:00
12:35 PM,51.8,17.6,26,30.07,10.0,WSW,6.9,-,N/A,,Clear,250,2013-05-13 17:35:00
12:55 PM,53.6,17.6,24,30.05,10.0,SSW,5.8,-,N/A,,Clear,200,2013-05-13 17:55:00
1:15 PM,53.6,19.4,26,30.04,10.0,South,5.8,-,N/A,,Clear,190,2013-05-13 18:15:00
1:35 PM,55.4,23.0,29,30.03,10.0,South,4.6,-,N/A,,Clear,190,2013-05-13 18:35:00
1:55 PM,57.2,23.0,27,30.02,10.0,SSE,5.8,-,N/A,,Clear,160,2013-05-13 18:55:00
2:15 PM,55.4,21.2,26,30.01,10.0,South,4.6,-,N/A,,Clear,180,2013-05-13 19:15:00
2:35 PM,55.4,19.4,25,30.01,10.0,Calm,Calm,-,N/A,,Clear,0,2013-05-13 19:35:00
3:35 PM,55.4,23.0,29,29.98,10.0,SSW,6.9,-,N/A,,Clear,210,2013-05-13 20:35:00
3:55 PM,55.4,24.8,31,29.98,10.0,South,4.6,-,N/A,,Scattered Clouds,170,2013-05-13 20:55:00
4:15 PM,55.4,26.6,33,29.97,10.0,South,6.9,16.1,N/A,,Mostly Cloudy,180,2013-05-13 21:15:00
4:35 PM,55.4,26.6,33,29.97,10.0,SSW,3.5,-,N/A,,Overcast,200,2013-05-13 21:35:00
4:55 PM,53.6,26.6,35,29.95,10.0,South,3.5,-,N/A,,Overcast,170,2013-05-13 21:55:00
5:15 PM,53.6,26.6,35,29.93,10.0,SE,3.5,-,N/A,,Overcast,140,2013-05-13 22:15:00
5:35 PM,53.6,26.6,35,29.93,10.0,South,3.5,-,N/A,,Overcast,170,2013-05-13 22:35:00
5:55 PM,53.6,28.4,38,29.94,10.0,South,3.5,-,N/A,,Overcast,180,2013-05-13 22:55:00
6:35 PM,53.6,30.2,41,29.92,10.0,SSE,5.8,-,N/A,,Overcast,160,2013-05-13 23:35:00
7:15 PM,53.6,30.2,41,29.92,10.0,SSE,3.5,-,N/A,,Overcast,160,2013-05-14 00:15:00
7:35 PM,53.6,30.2,41,29.91,10.0,Calm,Calm,-,N/A,,Overcast,0,2013-05-14 00:35:00
7:55 PM,53.6,30.2,41,29.90,10.0,SSE,3.5,-,N/A,,Overcast,150,2013-05-14 00:55:00
8:15 PM,51.8,30.2,44,29.89,10.0,SSE,4.6,-,N/A,,Overcast,150,2013-05-14 01:15:00
8:35 PM,51.8,30.2,44,29.87,10.0,SSE,3.5,-,N/A,,Overcast,150,2013-05-14 01:35:00
8:55 PM,51.8,28.4,41,29.86,10.0,SSE,4.6,-,N/A,,Overcast,150,2013-05-14 01:55:00
9:15 PM,51.8,30.2,44,29.85,10.0,SSE,4.6,-,N/A,,Overcast,150,2013-05-14 02:15:00
9:35 PM,51.8,30.2,44,29.85,10.0,SSE,5.8,-,N/A,,Overcast,160,2013-05-14 02:35:00
9:55 PM,51.8,30.2,44,29.84,10.0,SSE,3.5,-,N/A,,Overcast,150,2013-05-14 02:55:00
10:15 PM,51.8,30.2,44,29.84,10.0,SSE,5.8,-,N/A,,Overcast,150,2013-05-14 03:15:00
10:35 PM,50.0,30.2,47,29.83,10.0,Calm,Calm,-,N/A,,Scattered Clouds,0,2013-05-14 03:35:00
10:55 PM,50.0,30.2,47,29.83,10.0,SSE,3.5,-,N/A,,Clear,150,2013-05-14 03:55:00
11:15 PM,48.2,30.2,50,29.82,10.0,SSE,3.5,-,N/A,,Clear,160,2013-05-14 04:15:00
11:35 PM,48.2,30.2,50,29.80,10.0,SE,4.6,-,N/A,,Scattered Clouds,140,2013-05-14 04:35:00
11:55 PM,48.2,30.2,50,29.80,10.0,SE,5.8,-,N/A,,Clear,140,2013-05-14 04:55:00